Date,TemperatureHighF,TemperatureAvgF,TemperatureLowF,DewpointHighF,DewpointAvgF,DewpointLowF,HumidityHigh,HumidityAvg,HumidityLow,PressureMaxIn,PressureMinIn,WindSpeedMaxMPH,WindSpeedAvgMPH,GustSpeedMaxMPH,PrecipitationSumIn
2013-1-1,24.4,14.0,6.1,14.5,3.9,-5.2,77,63,55,30.21,29.98,0,0,0,0.00
2013-1-2,32.9,20.6,2.5,25.6,13.1,-5.9,79,72,66,30.14,29.93,0,0,0,0.00
2013-1-3,29.5,18.1,8.1,23.5,9.1,-1.2,78,67,60,30.33,30.13,0,0,0,0.00
2013-1-4,34.7,17.2,3.9,16.7,5.8,-4.8,71,61,45,30.16,30.00,0,0,0,0.00
2013-1-5,32.7,16.4,3.0,20.4,6.2,-5.6,71,63,48,30.13,29.90,0,0,0,0.01
2013-1-6,34.5,17.9,2.8,18.7,7.3,-6.1,71,63,49,30.21,29.95,0,0,0,0.00
2013-1-7,40.3,26.9,12.0,26.2,16.9,5.6,78,66,53,29.95,29.86,0,0,0,0.00
2013-1-8,33.8,21.4,8.4,26.6,14.4,0.0,80,74,67,30.02,29.72,0,0,0,0.00
2013-1-9,35.8,33.0,28.9,27.1,25.0,22.0,75,72,69,30.11,30.02,0,0,0,0.00
2013-1-10,38.3,32.5,24.6,29.9,25.7,17.5,85,76,62,30.19,29.56,0,0,0,0.01
2013-1-11,38.5,33.3,21.2,36.1,29.1,11.3,91,84,65,29.63,29.31,0,0,0,0.01
2013-1-12,20.5,13.9,7.0,11.6,2.2,-5.9,70,59,53,30.08,29.66,0,0,0,0.18
2013-1-13,17.6,9.7,4.3,0.7,-3.7,-6.8,63,54,42,30.23,30.06,0,0,0,0.00
2013-1-14,29.8,15.9,2.7,13.0,3.2,-7.1,66,57,44,30.36,30.22,0,0,0,0.00
2013-1-15,34.2,23.7,14.0,15.9,9.8,3.4,66,55,39,30.23,29.87,0,0,0,0.00
2013-1-16,47.1,35.4,22.1,32.4,25.0,9.2,75,66,55,30.22,29.76,0,0,0,0.00
2013-1-17,41.5,28.0,20.1,30.9,19.5,9.4,82,70,60,30.37,30.12,0,0,0,0.00
2013-1-18,54.3,38.3,27.1,35.3,26.7,20.9,83,64,42,30.12,29.77,4,0,6,0.01
2013-1-19,46.6,32.3,12.6,34.3,21.3,-2.0,77,64,49,30.30,29.74,32,13,37,0.04
2013-1-20,15.4,10.7,3.2,3.8,-2.0,-12.8,65,56,46,30.38,30.27,24,10,25,0.00
2013-1-21,7.9,3.5,-1.1,-7.6,-13.0,-18.3,52,45,40,30.38,30.27,28,12,30,0.00
2013-1-22,18.1,10.7,5.7,3.3,-4.2,-11.1,62,50,42,30.31,30.13,8,2,10,0.00
2013-1-23,23.9,12.7,1.4,10.3,-0.2,-14.4,66,56,45,30.48,30.07,25,8,25,0.00
2013-1-24,16.7,7.5,-2.6,-0.4,-9.8,-19.5,47,44,41,30.52,30.06,12,5,13,0.00
2013-1-25,35.6,21.2,7.3,22.3,8.6,-5.3,69,58,46,30.21,30.00,23,6,25,0.00
2013-1-26,41.9,22.0,8.2,23.7,8.6,-4.5,69,56,48,30.21,29.90,14,4,14,0.00
2013-1-27,36.3,34.3,31.1,32.0,28.3,20.7,86,79,60,29.90,29.65,8,2,8,0.11
2013-1-28,37.9,35.1,33.1,35.3,31.3,29.4,90,86,85,29.78,29.53,16,2,17,0.01
2013-1-29,37.2,32.3,26.2,30.4,26.9,18.5,87,80,71,29.75,29.56,24,12,24,0.00
2013-1-30,26.2,18.4,5.9,18.5,8.0,-6.7,72,63,53,29.89,29.69,34,20,34,0.00
2013-1-31,5.9,0.4,-3.3,-6.7,-15.4,-19.5,55,46,37,30.32,29.88,34,20,35,0.21
2013-2-1,31.8,12.6,-6.7,21.8,-0.7,-19.2,70,54,45,30.31,29.88,21,5,24,0.00
2013-2-2,38.7,26.2,18.5,31.1,16.7,9.4,79,67,61,30.11,29.94,33,10,37,0.04
2013-2-3,53.1,32.5,13.6,30.6,19.3,3.8,77,59,40,30.13,29.69,25,9,28,0.00
2013-2-4,30.9,22.0,17.8,24.6,12.6,7.7,78,67,61,29.99,29.73,11,3,13,0.00
2013-2-5,46.0,32.8,19.8,31.9,23.3,12.9,79,68,53,30.00,29.70,24,8,24,0.00
2013-2-6,46.9,37.8,26.2,35.5,28.7,20.3,82,70,58,29.99,29.75,13,4,17,0.00
2013-2-7,34.9,30.5,27.0,27.8,22.7,16.6,80,72,64,30.20,29.87,20,7,21,0.00
2013-2-8,37.4,27.6,23.7,24.0,18.2,15.4,75,68,53,30.24,30.01,14,4,14,0.00
2013-2-9,52.5,38.2,24.8,33.4,27.6,17.7,80,66,45,30.03,29.62,14,6,21,0.00
2013-2-10,43.3,34.7,27.5,38.8,29.0,20.0,87,79,69,29.65,29.17,39,17,43,2.16
2013-2-11,27.9,26.3,19.2,19.7,17.0,9.8,77,68,63,30.05,29.66,38,19,39,0.70
2013-2-12,40.8,28.6,14.9,26.4,17.8,6.5,76,64,52,30.04,29.82,17,6,17,0.00
2013-2-13,50.4,35.1,20.3,34.0,25.2,14.2,80,68,52,29.83,29.61,17,6,21,0.00
2013-2-14,39.2,29.7,16.9,28.4,20.2,4.8,78,67,53,30.24,29.70,30,16,30,0.00
2013-2-15,28.0,19.5,8.1,17.5,8.9,-1.8,68,63,53,30.29,30.23,14,5,19,0.00
2013-2-16,34.9,23.1,6.3,24.3,13.6,-3.2,72,66,57,30.25,29.93,15,4,15,0.02
2013-2-17,52.3,33.3,18.0,33.6,22.8,10.1,75,66,47,29.94,29.50,15,3,15,0.00
2013-2-18,40.8,27.9,9.9,30.7,16.4,-6.2,73,62,47,30.02,29.53,41,26,45,1.56
2013-2-19,17.8,9.6,1.9,-2.9,-7.3,-10.7,55,45,34,30.32,30.02,36,20,37,0.34
2013-2-20,25.0,11.9,-0.9,2.4,-7.6,-14.8,56,42,25,30.34,30.15,11,5,11,0.00
2013-2-21,25.0,20.6,18.1,14.4,7.6,1.9,75,58,39,30.20,29.88,21,9,23,0.00
2013-2-22,24.8,17.6,8.6,12.8,8.4,-1.7,71,67,59,29.93,29.85,19,9,20,0.00
2013-2-23,60.3,13.2,-3.1,13.7,-0.8,-14.0,70,56,10,29.91,29.74,64,4,64,0.00
2013-2-24,25.3,17.3,5.0,17.0,8.7,-4.7,75,68,63,30.04,29.80,9,3,9,0.00
2013-2-25,35.8,26.1,18.5,23.4,17.7,11.0,77,70,58,30.05,29.90,11,4,11,0.01
2013-2-26,32.5,25.4,19.6,24.2,18.0,13.3,77,73,67,29.95,29.80,16,6,17,0.00
2013-2-27,33.8,25.2,16.7,21.4,15.7,6.9,74,67,57,30.06,29.88,30,20,31,0.00
2013-2-28,27.7,25.3,23.4,17.8,15.9,14.2,70,67,62,30.18,30.06,23,16,24,0.00
2013-3-1,34.3,23.4,12.0,17.2,6.9,-23.1,69,55,10,30.31,30.16,131,24,131,0.00
2013-3-2,33.1,18.5,1.0,19.2,8.0,-9.8,73,63,53,30.29,29.98,8,2,9,0.14
2013-3-3,38.7,30.7,21.9,27.6,20.8,13.9,74,66,56,29.98,29.65,12,6,15,0.00
2013-3-4,37.6,32.1,27.1,28.5,21.9,14.1,76,66,53,29.95,29.62,30,6,30,0.00
2013-3-5,28.0,25.2,21.2,19.2,15.0,11.3,76,65,57,30.33,29.93,42,25,42,0.96
2013-3-6,34.5,24.8,18.5,20.3,13.9,8.1,70,63,53,30.36,30.16,15,5,17,0.00
2013-3-7,47.5,31.6,20.3,31.6,21.1,12.5,73,65,51,30.19,30.03,12,5,15,0.00
2013-3-8,52.5,37.8,24.8,37.1,27.8,17.1,83,68,51,30.13,29.84,9,4,13,0.02
2013-3-9,45.5,38.6,31.3,41.6,34.6,27.3,87,86,82,29.83,29.56,26,7,27,0.26
2013-3-10,31.5,26.9,21.6,27.5,21.0,14.6,85,78,72,29.93,29.76,26,4,46,0.00
2013-3-11,36.9,24.5,15.4,20.4,14.6,7.2,75,66,47,29.93,29.78,27,12,27,0.04
2013-3-12,32.5,27.3,20.8,22.3,18.2,11.7,75,68,62,30.25,29.91,40,21,42,0.02
2013-3-13,21.0,20.3,19.4,12.2,11.6,10.6,69,68,68,30.28,30.25,12,8,12,0.00
2013-3-14,34.9,31.5,27.1,29.7,23.6,17.8,81,72,64,30.10,29.95,4,2,4,0.00
2013-3-15,52.5,41.8,33.4,40.8,34.6,28.0,85,76,63,29.95,29.69,21,5,26,0.00
2013-3-16,36.0,29.1,23.4,28.0,19.4,15.1,80,67,54,30.14,29.85,33,14,34,0.01
2013-3-17,41.4,29.1,20.1,27.8,17.9,9.9,79,63,53,30.13,29.62,16,8,17,0.01
2013-3-18,35.1,27.5,19.8,29.3,14.5,5.8,81,58,45,29.97,29.62,43,23,44,1.17
2013-3-19,40.8,24.8,15.1,23.3,9.7,1.3,61,52,39,30.30,29.97,27,9,28,0.00
2013-3-20,32.9,20.7,11.5,12.3,4.3,-0.5,58,49,36,30.33,30.06,25,12,25,0.00
2013-3-21,35.1,23.3,12.6,15.2,6.3,0.3,66,49,25,30.06,29.87,13,5,15,0.00
2013-3-22,34.9,25.3,20.5,20.2,13.8,11.3,68,62,47,29.99,29.92,6,3,7,0.00
2013-3-23,35.2,30.5,27.9,25.1,21.6,18.7,78,69,56,30.08,29.97,14,4,18,0.00
2013-3-24,28.0,25.9,-19.7,20.0,16.1,-29.0,77,66,55,30.07,29.98,25,18,27,0.00
2013-3-25,29.8,25.8,22.5,19.9,16.4,13.5,76,67,57,30.27,30.06,27,18,28,0.00
2013-3-26,24.1,23.1,19.8,13.4,12.0,9.3,63,62,59,30.28,30.26,12,7,13,0.00
2013-3-27,54.0,39.7,20.3,28.5,23.4,12.1,72,54,33,30.19,30.10,10,4,10,0.00
2013-3-28,57.7,41.4,25.0,36.2,27.1,17.6,79,59,38,30.17,30.09,11,4,14,0.00
2013-3-29,69.4,48.5,29.1,44.4,33.0,22.9,84,59,28,30.14,29.93,21,4,24,0.00
2013-3-30,63.9,50.6,41.5,48.7,43.5,36.8,94,78,46,29.97,29.85,34,8,34,0.05
2013-3-31,50.2,38.1,24.3,37.2,30.1,16.9,93,75,44,30.13,29.89,26,9,84,3.21
2013-4-1,42.3,24.5,16.7,22.7,12.9,9.3,75,63,32,30.28,30.13,18,2,18,0.02
2013-4-2,52.3,34.0,15.8,26.7,19.9,8.4,78,58,33,30.24,30.16,8,2,11,0.06
2013-4-3,62.2,42.8,24.8,30.2,24.7,18.2,78,53,24,30.24,30.05,30,10,32,0.00
2013-4-4,64.0,47.9,37.0,38.1,28.0,19.9,75,50,19,30.11,30.01,21,8,22,0.00
2013-4-5,67.1,47.0,28.0,40.1,30.8,20.9,82,56,32,30.12,29.59,16,6,20,0.00
2013-4-6,70.5,55.8,41.0,43.5,38.7,31.3,87,55,30,29.75,29.50,30,12,40,0.02
2013-4-7,68.2,46.9,32.5,49.0,38.4,28.3,95,75,40,29.84,29.57,20,5,22,0.01
2013-4-8,75.6,52.1,33.4,54.7,44.3,32.0,99,79,41,29.80,29.56,27,6,28,0.00
2013-4-9,45.1,35.5,29.1,42.2,32.8,26.2,94,90,83,30.04,29.69,26,7,31,0.73
2013-4-10,35.6,32.9,30.6,31.8,29.8,28.2,94,89,83,29.98,29.76,12,2,12,0.26
2013-4-11,30.6,30.0,29.3,29.1,28.8,28.3,96,95,94,29.76,29.67,14,10,14,0.00
2013-4-12,33.1,31.9,30.6,29.7,26.4,23.9,91,80,69,29.92,29.66,24,17,24,0.00
2013-4-13,46.9,35.3,25.0,36.9,28.1,18.8,79,75,68,29.93,29.65,27,6,27,8.68
2013-4-14,56.1,46.7,37.6,49.7,39.7,30.4,90,77,55,29.63,29.22,27,12,27,0.05
2013-4-15,45.7,38.7,31.1,34.2,28.0,20.9,79,65,56,30.04,29.58,27,16,27,0.01
2013-4-16,51.4,40.1,31.3,31.3,27.8,25.0,81,63,41,30.18,30.02,19,8,19,0.00
2013-4-17,39.2,36.4,33.4,35.5,30.6,26.4,87,80,68,30.17,29.83,20,10,21,0.27
2013-4-18,34.2,31.7,29.5,29.6,27.8,22.9,88,85,76,29.87,29.70,34,22,36,0.15
2013-4-19,41.4,32.6,25.5,27.4,21.3,15.4,76,63,53,30.04,29.76,30,20,32,0.00
2013-4-20,43.0,33.2,22.6,27.1,22.4,15.6,77,65,50,30.18,30.04,8,3,9,0.00
2013-4-21,62.4,46.3,33.4,45.9,35.8,24.4,80,67,46,30.11,29.94,23,8,27,1.50
2013-4-22,41.9,34.9,27.3,35.9,30.1,21.4,85,82,77,30.22,30.00,21,7,21,0.09
2013-4-23,35.2,29.6,24.4,23.5,20.8,16.6,79,69,59,30.23,30.09,24,12,25,0.12
2013-4-24,54.5,36.9,26.4,39.2,27.1,16.9,78,68,52,30.10,29.93,35,12,39,0.06
2013-4-25,72.3,48.8,23.2,39.4,30.0,17.4,83,54,21,30.16,29.84,27,8,31,0.00
2013-4-26,78.1,60.8,39.9,42.5,36.3,30.5,80,44,19,30.11,29.89,24,6,34,0.00
2013-4-27,78.4,58.4,34.0,52.2,41.1,26.3,93,57,25,30.11,29.84,15,3,17,0.00
2013-4-28,88.7,75.1,55.4,53.0,46.9,38.2,78,40,17,29.85,29.59,21,10,23,0.00
2013-4-29,83.7,64.9,46.9,52.4,44.7,36.9,77,51,23,29.79,29.39,21,5,21,0.00
2013-4-30,73.9,64.3,53.2,55.3,40.1,20.1,69,45,14,29.96,29.34,36,11,36,0.01
2013-5-1,51.4,38.5,32.5,41.9,34.3,29.6,93,85,66,30.40,29.95,14,4,19,0.84
2013-5-2,55.4,43.0,35.1,36.9,29.4,25.1,79,61,33,30.54,30.36,18,7,24,0.00
2013-5-3,55.9,40.9,28.2,34.8,27.5,22.8,85,61,32,30.36,30.03,26,10,26,0.00
2013-5-4,42.6,40.1,36.7,39.4,35.7,29.8,94,84,64,30.12,30.00,13,5,15,0.05
2013-5-5,54.0,45.6,39.9,47.4,42.4,38.6,96,89,77,30.13,30.06,14,9,16,0.04
2013-5-6,67.1,52.4,45.1,50.9,45.3,40.2,90,78,48,30.11,29.99,9,4,11,0.00
2013-5-7,76.5,58.1,37.9,55.1,47.9,36.6,96,72,37,30.00,29.89,24,3,24,0.01
2013-5-8,69.1,59.3,54.1,61.3,56.4,52.5,97,90,71,29.91,29.85,10,2,12,0.33
2013-5-9,61.3,57.5,50.7,56.5,54.3,47.6,96,89,79,30.00,29.85,15,4,16,0.02
2013-5-10,69.6,56.1,44.6,53.1,46.9,40.3,92,73,45,30.07,29.93,18,6,18,0.00
2013-5-11,59.9,51.9,39.6,48.7,30.5,16.3,76,47,22,30.22,29.95,36,13,36,0.01
2013-5-12,67.5,49.6,28.4,32.0,23.7,16.7,76,42,17,30.22,30.03,11,3,23,0.00
2013-5-13,91.2,67.0,42.1,53.2,42.4,28.1,67,44,21,30.03,29.70,27,8,33,0.00
2013-5-14,104.4,79.0,56.3,61.1,47.3,34.1,82,41,13,29.74,29.54,30,9,34,0.04
2013-5-15,84.9,67.8,54.3,48.2,43.5,37.8,67,43,25,29.92,29.74,14,4,14,0.00
2013-5-16,87.6,66.7,50.2,60.4,51.5,41.8,92,63,25,29.85,29.70,33,5,34,0.79
2013-5-17,91.4,73.1,55.4,68.1,61.1,54.3,97,70,35,29.81,29.70,17,3,20,0.00
2013-5-18,88.7,75.1,62.1,65.7,61.4,57.2,87,64,43,29.86,29.64,11,3,14,0.00
2013-5-19,76.8,66.0,58.3,66.5,61.2,54.6,94,85,64,29.67,29.42,27,5,34,0.19
2013-5-20,72.5,63.1,55.2,59.2,55.3,52.9,95,77,56,29.54,29.43,23,10,27,0.01
2013-5-21,62.6,56.8,52.2,57.5,51.6,48.2,94,83,71,29.65,29.51,27,15,27,0.07
2013-5-22,57.6,53.5,50.2,51.9,49.6,48.0,96,87,76,29.95,29.64,22,12,24,0.04
2013-5-23,52.9,51.9,51.1,48.8,47.6,47.0,87,85,84,30.00,29.95,14,4,14,0.00
2013-5-24,77.2,62.6,44.2,51.3,45.7,37.7,80,56,38,30.21,29.99,9,4,9,0.00
2013-5-25,74.5,65.5,56.5,60.7,55.6,47.7,94,71,55,30.00,29.93,12,8,12,0.01
2013-5-26,68.9,59.1,52.9,62.1,55.4,50.6,95,88,75,29.97,29.81,21,10,21,0.08
2013-5-27,69.6,65.4,57.4,61.4,58.7,54.2,96,79,70,29.85,29.66,20,7,20,2.07
2013-5-28,79.9,67.1,56.1,64.0,58.9,54.1,95,77,51,29.69,29.57,18,5,19,0.00
2013-5-29,83.3,70.4,61.0,68.6,63.4,57.1,94,80,54,29.67,29.38,33,6,37,0.19
2013-5-30,79.5,68.8,61.2,65.9,59.3,51.2,93,73,43,29.51,29.40,31,9,34,0.09
2013-5-31,77.2,66.0,57.0,53.7,50.0,45.9,83,58,34,29.58,29.50,35,16,43,0.33
2013-6-1,60.3,55.3,51.3,55.1,51.2,47.4,94,86,68,30.00,29.55,35,19,35,0.20
2013-6-2,71.1,59.1,48.6,49.3,45.6,41.6,85,63,35,30.08,29.94,16,5,16,0.00
2013-6-3,79.0,63.8,45.7,52.4,48.1,42.3,91,60,34,29.97,29.75,21,5,21,0.00
2013-6-4,73.0,64.3,56.8,61.5,56.2,51.2,94,75,63,29.98,29.82,9,4,11,0.02
2013-6-5,70.9,61.8,54.0,57.2,50.3,46.7,95,67,48,30.00,29.92,18,10,21,0.00
2013-6-6,61.3,58.7,55.4,53.6,52.8,51.5,88,81,74,29.95,29.91,11,6,11,0.00
2013-6-7,77.7,63.6,47.7,52.5,49.3,45.1,91,63,37,30.00,29.82,7,2,7,0.00
2013-6-8,61.5,59.3,55.2,59.3,54.6,48.4,94,85,64,29.81,29.57,9,4,9,0.52
2013-6-9,66.2,62.3,59.5,59.7,57.6,55.7,94,85,75,29.80,29.56,30,15,30,0.08
2013-6-10,80.4,66.2,55.2,65.9,58.9,52.8,97,79,53,29.85,29.74,12,4,13,0.00
2013-6-11,88.3,76.5,63.7,71.0,65.9,59.0,88,71,51,29.79,29.67,22,6,28,0.00
2013-6-12,77.2,74.2,71.6,68.7,67.8,66.4,89,80,73,29.73,29.63,14,4,24,0.18
2013-6-13,79.9,68.0,55.2,56.6,54.5,52.2,92,65,42,30.07,29.98,11,5,11,0.00
2013-6-14,82.6,76.2,64.2,68.8,64.3,56.1,83,67,55,29.98,29.72,11,6,11,0.11
2013-6-15,83.7,76.8,63.0,68.6,65.5,59.8,92,69,55,29.92,29.78,13,3,13,0.25
2013-6-16,83.8,72.5,59.2,63.6,58.5,47.1,94,65,28,29.97,29.85,14,3,14,0.00
2013-6-21,72.5,62.4,55.2,63.3,55.7,53.2,95,80,56,29.56,29.47,20,9,20,0.09
2013-6-22,66.6,58.4,53.6,56.5,52.0,48.6,88,79,64,29.61,29.49,19,13,19,0.06
2013-6-23,57.0,53.6,50.2,53.2,50.1,48.1,96,88,77,29.86,29.63,24,14,24,0.05
2013-6-24,72.3,58.2,47.1,49.3,46.3,38.8,88,69,32,30.19,29.87,15,7,15,0.00
2013-6-25,77.2,62.0,44.2,51.3,44.6,37.7,80,55,34,30.23,30.01,9,4,9,0.00
2013-6-26,74.1,67.0,57.7,60.7,54.2,47.7,82,64,43,30.05,29.95,12,7,12,0.00
2013-6-27,88.0,73.2,52.9,66.0,61.1,50.6,95,69,42,30.00,29.89,21,8,21,0.07
2013-6-28,86.7,77.3,66.9,64.7,58.9,53.2,79,55,34,29.98,29.88,31,13,33,0.01
2013-6-29,83.1,72.8,62.6,59.3,56.3,53.6,79,58,40,29.95,29.87,27,8,32,0.00
2013-6-30,80.2,68.7,55.9,57.6,52.2,45.9,88,60,32,30.11,29.95,11,4,14,0.00
2013-7-1,86.7,71.2,55.0,59.5,53.9,48.3,86,59,27,30.18,30.10,11,4,13,0.00
2013-7-2,86.5,71.0,55.0,61.1,56.9,51.4,91,64,35,30.13,30.03,10,2,13,0.00
2013-7-3,88.3,71.6,53.6,63.2,58.0,50.6,94,66,38,30.04,29.90,10,2,11,0.00
2013-7-4,90.3,75.0,57.2,64.0,59.0,52.8,87,60,36,29.92,29.81,25,3,26,0.00
2013-7-5,91.8,78.5,67.3,69.3,62.3,56.7,73,58,44,29.85,29.76,21,4,24,0.00
2013-7-6,94.5,79.8,71.6,71.7,65.0,59.2,75,61,46,29.80,29.73,14,3,18,0.00
2013-7-7,92.1,80.0,66.9,72.9,67.6,62.0,89,67,51,29.94,29.78,51,2,51,0.77
2013-7-8,92.1,77.9,71.2,75.1,70.6,69.1,93,80,55,29.94,29.86,8,2,10,0.00
2013-7-9,90.5,81.0,71.2,74.6,70.5,66.5,89,72,53,29.97,29.80,21,5,21,0.06
2013-7-10,84.0,69.6,65.1,66.3,63.4,61.3,93,83,48,30.09,29.97,4,0,4,0.01
2013-7-11,67.1,64.3,62.1,61.8,59.9,59.1,91,86,83,30.03,30.02,2,0,2,0.00
2013-7-18,93.0,83.5,69.6,70.7,68.5,65.9,89,62,47,30.08,29.84,24,9,24,0.02
2013-7-19,90.3,82.9,69.1,70.7,64.6,58.3,74,55,36,29.93,29.80,23,7,23,0.00
2013-7-20,83.7,71.1,58.3,66.0,61.5,54.9,93,73,54,29.98,29.84,14,2,14,0.00
2013-7-21,90.5,79.7,65.7,71.1,67.5,63.3,94,68,46,29.88,29.73,4,2,4,0.02
2013-7-22,90.5,77.0,63.1,74.5,66.1,59.3,95,71,45,29.86,29.71,15,4,15,0.00
2013-7-23,80.8,70.8,60.1,61.3,59.3,54.9,86,68,46,30.00,29.86,11,4,11,0.00
2013-7-24,85.8,69.7,54.7,64.0,58.5,51.5,92,70,45,30.06,29.96,6,1,6,0.00
2013-7-25,85.1,71.8,61.3,71.6,64.5,57.5,91,78,59,30.00,29.88,21,3,23,0.06
2013-7-26,77.0,66.4,58.6,64.2,56.3,51.4,93,71,44,30.12,29.95,23,8,25,0.01
2013-7-27,74.1,61.0,46.9,52.7,48.2,44.3,94,66,39,30.11,29.99,21,6,21,0.00
2013-7-28,78.4,62.1,42.6,54.3,47.6,40.2,93,63,33,30.04,29.98,7,2,11,0.00
2013-7-29,66.9,59.7,50.2,60.3,54.0,46.3,89,82,67,30.04,29.99,11,1,12,0.02
2013-7-30,75.9,68.8,62.6,65.6,63.0,59.5,95,82,67,30.07,30.01,5,1,7,0.02
2013-7-31,84.4,70.1,56.3,68.3,61.0,55.2,97,76,48,30.10,30.02,9,2,10,0.00
2013-8-1,86.2,68.0,53.6,70.6,61.6,51.3,94,81,51,30.07,29.86,17,4,17,0.09
2013-8-2,70.9,65.2,61.7,66.8,61.8,58.3,96,89,74,30.03,29.86,14,3,17,0.35
2013-8-3,77.0,67.1,58.5,62.7,58.6,52.7,95,76,50,30.17,30.03,11,2,11,0.01
2013-8-4,79.9,65.9,52.3,67.1,59.7,50.4,95,81,61,30.18,29.96,8,1,11,0.07
2013-8-5,84.7,73.4,65.7,71.8,67.2,62.9,94,82,61,29.98,29.82,30,4,40,0.57
2013-8-6,87.3,74.3,60.4,73.2,66.4,58.7,96,78,55,29.88,29.74,16,3,17,0.04
2013-8-7,81.5,70.3,59.5,66.6,62.0,56.3,91,76,52,29.99,29.83,10,3,10,0.00
2013-8-8,78.6,68.4,62.1,68.3,62.8,57.8,92,83,66,30.02,29.93,9,2,12,0.04
2013-8-9,82.6,70.5,60.3,66.8,60.5,56.5,96,74,43,30.12,29.99,7,2,9,0.00
2013-8-10,84.0,67.3,57.2,68.2,61.9,54.8,94,84,55,30.16,29.99,11,2,11,0.27
2013-8-11,82.8,72.6,63.1,71.5,66.1,59.9,93,81,66,30.04,29.96,11,3,11,0.00
2013-8-12,82.8,69.8,59.4,70.6,63.2,57.9,97,81,54,30.07,29.99,7,2,10,0.00
2013-8-13,80.2,67.1,54.1,62.6,58.1,51.9,95,75,51,30.16,30.06,8,2,11,0.00
2013-8-14,59.7,57.5,54.9,54.7,52.4,50.1,86,83,77,30.15,30.14,4,1,4,0.00
2013-8-15,66.9,62.4,59.0,60.7,58.6,57.0,93,87,78,30.10,30.02,8,2,8,0.02
2013-8-16,75.4,66.1,60.8,63.7,59.5,57.1,89,80,66,30.14,30.08,5,2,5,0.00
2013-8-17,81.5,68.5,57.7,64.3,60.1,55.4,94,76,54,30.14,30.06,11,2,11,0.00
2013-8-18,82.6,68.0,54.1,65.7,59.2,51.9,94,76,53,30.09,30.00,17,3,17,0.00
2013-8-19,87.8,76.2,62.6,73.5,67.3,58.7,91,75,61,30.00,29.85,21,5,21,0.00
2013-8-20,91.6,78.9,68.4,78.1,70.6,64.3,88,76,62,29.88,29.82,11,3,11,0.00
2013-8-21,90.3,78.5,70.7,77.0,71.7,65.0,88,80,60,30.00,29.85,31,4,37,0.14
2013-8-22,87.8,76.4,68.0,73.8,69.2,64.6,94,80,59,30.05,29.96,11,3,24,0.31
2013-8-23,90.0,77.0,65.8,76.0,69.9,64.1,95,80,57,30.05,29.91,10,2,10,0.00
2013-8-24,91.0,81.9,71.8,78.4,72.9,66.7,90,75,62,30.00,29.90,17,4,18,0.52
2013-8-25,92.8,82.3,74.3,77.8,72.4,68.1,85,72,59,29.99,29.93,18,5,21,0.00
2013-8-26,93.2,83.0,72.1,77.8,72.6,67.1,85,72,59,29.98,29.83,17,4,23,0.00
2013-8-27,94.1,82.6,73.2,79.4,71.4,64.9,85,69,56,29.87,29.82,12,4,17,0.00
2013-8-28,95.2,80.1,66.2,79.9,70.8,62.2,90,75,54,29.95,29.86,6,1,7,0.00
2013-8-29,94.8,79.7,64.2,78.5,71.6,61.9,94,78,56,29.96,29.84,12,2,14,0.00
2013-8-30,91.2,79.2,68.5,77.0,71.0,65.1,93,77,52,29.89,29.83,11,2,11,0.00
2013-8-31,93.2,78.3,65.5,76.7,70.5,63.4,95,79,53,29.87,29.74,10,2,11,0.00
2013-9-1,82.4,72.4,61.0,72.6,61.7,56.1,91,71,45,30.00,29.74,21,7,27,0.01
2013-9-2,80.6,65.3,53.6,60.5,55.7,51.2,95,74,45,30.09,29.99,8,2,8,0.00
2013-9-3,87.8,68.2,51.4,70.0,60.7,49.5,96,79,53,30.04,29.94,14,2,14,0.01
2013-9-4,89.1,73.0,62.4,71.0,65.5,59.6,93,79,53,30.09,29.98,5,1,11,0.01
2013-9-5,90.0,74.0,67.3,72.1,66.7,63.3,89,79,51,30.12,30.01,13,2,14,0.00
2013-9-6,92.5,77.0,63.9,74.5,67.8,60.1,91,75,51,30.03,29.82,20,2,20,0.00
2013-9-7,88.5,75.8,68.0,75.2,69.7,65.1,92,82,63,29.93,29.81,12,2,12,0.08
2013-9-8,88.9,77.2,65.5,74.8,70.3,64.0,95,81,58,29.92,29.74,11,3,12,0.06
2013-9-9,95.5,80.5,69.6,72.0,68.5,64.8,93,70,40,29.82,29.67,21,5,22,0.00
2013-9-10,83.7,70.5,63.5,66.3,64.6,59.3,92,82,53,30.00,29.82,8,2,8,0.04
2013-9-11,88.0,67.0,59.4,66.0,60.1,56.4,93,80,43,30.08,30.00,6,0,6,0.00
2013-9-12,81.1,67.8,54.1,60.9,52.3,45.3,86,61,30,30.23,30.08,12,3,12,0.00
2013-9-13,79.3,61.3,43.9,55.5,50.0,41.9,95,70,37,30.20,30.02,8,1,8,0.00
2013-9-14,71.2,60.7,48.7,57.1,52.5,46.3,94,76,60,30.02,29.79,8,2,8,0.00
2013-9-15,71.6,63.9,55.6,58.6,55.3,49.9,85,74,58,30.24,29.78,16,6,20,0.00
2013-9-16,75.4,60.1,47.5,56.6,51.7,44.4,93,75,47,30.31,30.13,11,2,16,0.00
2013-9-17,67.5,62.1,56.7,64.1,58.3,51.8,93,87,77,30.14,29.80,8,3,8,0.00
2013-9-18,92.8,77.4,67.1,71.5,67.6,64.1,91,74,48,29.80,29.61,22,4,22,0.00
2013-9-19,77.7,69.9,56.7,66.7,58.6,46.9,86,69,39,29.97,29.61,34,11,40,0.00
2013-9-20,70.3,57.8,41.9,49.2,43.4,37.4,84,62,32,30.02,29.93,25,12,25,0.00
2013-9-21,77.9,55.8,35.1,51.7,43.8,32.2,95,69,35,29.98,29.79,6,2,6,0.00
2013-9-22,86.9,67.5,51.1,56.8,51.7,48.0,91,62,30,29.81,29.70,21,4,24,0.00
2013-9-23,83.1,67.7,52.9,55.3,51.5,37.1,84,59,22,29.77,29.68,11,4,16,0.00
2013-9-24,77.2,62.7,56.3,58.6,55.1,50.3,93,78,51,29.89,29.76,12,3,12,0.04
2013-9-25,81.9,65.9,48.0,59.8,55.7,47.1,97,73,45,29.89,29.69,12,3,15,0.04
2013-9-26,90.7,74.1,61.2,61.9,59.0,56.6,86,62,36,29.74,29.65,14,5,15,0.01
2013-9-27,89.1,76.5,68.2,63.7,61.0,58.8,76,60,42,29.75,29.65,24,5,27,0.06
2013-9-28,74.5,58.1,44.6,60.5,47.6,40.1,93,71,39,29.97,29.62,27,12,27,0.20
2013-9-29,83.1,61.6,42.1,48.8,43.1,38.6,90,57,22,29.97,29.75,24,7,26,0.00
2013-9-30,87.1,70.0,51.4,54.0,48.8,44.3,78,49,26,29.77,29.58,22,8,24,0.00
2013-10-1,80.2,66.7,50.5,53.2,44.1,29.7,76,49,16,29.94,29.63,25,6,25,0.00
2013-10-2,84.4,63.2,43.7,64.6,53.7,39.5,92,73,49,29.95,29.72,21,3,25,0.17
2013-10-3,67.5,61.9,54.1,61.0,57.4,51.5,95,85,74,29.83,29.74,24,5,25,0.01
2013-10-4,73.9,61.3,48.6,65.9,57.2,41.7,94,86,73,29.81,29.57,21,9,24,0.41
2013-10-5,49.1,44.6,37.9,41.2,36.2,32.9,88,73,63,29.82,29.68,24,14,24,0.01
2013-10-6,58.5,47.7,41.7,46.7,41.4,36.6,93,80,46,29.95,29.70,28,14,47,0.00
2013-10-7,78.4,54.2,38.7,48.8,40.7,34.5,85,65,28,29.99,29.88,11,2,11,0.00
2013-10-8,82.9,63.4,48.4,49.9,44.8,40.7,77,54,26,29.89,29.74,31,5,31,0.00
2013-10-9,82.2,65.8,51.1,54.3,49.3,44.8,81,57,34,29.93,29.83,11,4,16,0.00
2013-10-10,59.2,58.4,57.4,49.8,49.5,49.2,74,72,70,29.92,29.89,4,2,5,0.00
2013-10-11,79.7,59.1,48.7,58.3,47.0,40.8,83,66,30,29.82,29.50,32,9,32,0.00
2013-10-12,64.9,52.6,36.0,41.9,34.2,25.5,77,54,23,30.23,29.82,27,10,27,0.00
2013-10-13,72.0,49.0,28.4,41.4,32.6,24.8,92,59,24,30.36,30.22,9,2,11,0.00
2013-10-14,54.7,49.0,44.2,52.8,44.9,38.1,95,86,59,30.25,29.62,19,7,21,0.02
2013-10-15,56.5,46.5,42.4,55.2,42.6,38.6,96,86,83,29.99,29.61,30,20,30,0.00
2013-10-16,56.3,45.4,34.9,40.3,36.9,30.6,88,74,47,30.02,29.89,19,10,21,0.00
2013-10-17,54.7,40.6,28.9,44.3,35.5,26.1,94,82,66,30.00,29.82,29,10,30,0.00
2013-10-18,53.8,41.9,26.6,37.9,32.1,21.6,87,70,35,30.06,29.91,20,8,21,0.00
2013-10-19,60.1,46.0,36.1,40.2,35.1,30.9,86,68,40,29.91,29.75,21,8,22,0.00
2013-10-20,61.0,47.1,37.9,42.9,37.5,30.6,86,70,47,29.97,29.63,32,13,34,0.00
2013-10-21,52.2,41.9,27.3,38.3,31.1,22.3,86,67,40,30.02,29.88,17,6,19,0.00
2013-10-22,43.0,38.9,32.5,40.0,34.7,28.5,91,85,77,30.06,29.83,13,4,13,0.01
2013-10-23,43.2,36.0,27.0,38.6,32.1,22.5,94,86,76,30.17,30.01,14,4,14,0.00
2013-10-24,45.5,36.8,26.2,34.0,28.9,20.2,84,73,57,30.33,30.17,15,9,17,0.00
2013-10-25,62.8,44.9,23.7,39.6,31.7,19.1,86,62,40,30.31,29.91,28,12,28,0.00
2013-10-26,50.5,42.9,27.7,40.8,31.5,20.5,78,64,53,30.19,29.92,21,11,24,0.00
2013-10-27,71.8,46.8,25.5,42.1,27.6,12.3,83,57,10,30.06,29.75,70,14,70,0.00
2013-10-28,45.3,37.1,-2.0,35.4,26.0,-45.0,84,67,10,30.24,29.99,21,10,21,0.01
2013-10-29,44.1,40.0,37.8,42.2,36.5,34.2,93,87,84,30.18,29.96,111,8,111,0.00
2013-10-30,43.5,41.2,37.8,42.5,40.0,35.1,98,95,88,29.96,29.73,14,9,14,0.00
2013-10-31,52.7,42.0,28.8,43.6,36.5,27.0,97,82,61,29.67,29.45,20,7,20,0.01
2013-11-1,55.6,46.7,40.6,42.8,39.3,36.2,84,76,55,29.94,29.52,30,17,30,0.02
2013-11-2,58.6,43.6,32.0,38.1,32.9,27.1,85,68,38,30.10,29.94,18,7,18,0.00
2013-11-3,59.5,51.4,33.1,39.2,37.1,27.0,78,59,43,29.97,29.63,11,4,11,0.00
2013-11-4,55.0,44.5,27.1,41.0,34.0,20.0,83,68,42,30.11,29.69,29,7,29,0.00
2013-11-5,37.4,30.9,24.3,33.9,26.9,19.4,90,85,76,30.13,29.94,16,3,17,0.01
2013-11-6,39.7,32.7,25.3,32.5,27.9,20.9,90,83,71,30.18,30.06,10,2,11,0.00
2013-11-7,44.1,32.0,22.5,29.7,23.9,18.9,88,73,52,30.33,30.15,23,6,24,0.00
2013-11-8,57.0,42.9,25.5,40.7,32.7,19.0,81,68,53,30.16,29.62,30,7,31,0.00
2013-11-9,54.1,44.9,31.5,39.3,33.7,24.2,75,65,46,30.31,29.81,79,14,79,0.00
2013-11-10,54.7,36.4,21.7,35.2,26.3,16.0,85,68,38,30.33,30.03,15,3,15,0.00
2013-11-11,39.0,25.3,12.9,34.4,14.7,4.4,87,64,44,30.73,30.04,24,8,25,0.00
2013-11-12,12.9,11.5,10.6,4.4,3.3,2.5,70,69,68,30.75,30.73,9,7,9,0.00
2013-11-13,60.1,36.2,22.6,32.7,22.0,9.7,73,58,35,30.39,29.88,23,4,23,0.00
2013-11-14,59.4,36.1,27.5,43.1,29.4,22.1,87,77,50,29.90,29.81,13,2,13,0.00
2013-11-15,59.7,38.4,23.9,41.9,30.4,20.1,92,74,46,29.82,29.51,11,2,17,0.00
2013-11-16,57.2,49.3,35.4,48.6,40.8,26.3,93,74,48,29.51,29.22,17,9,17,0.00
2013-11-17,50.5,42.7,35.4,41.7,35.1,22.9,90,75,50,29.97,29.33,26,10,27,0.01
2013-11-18,50.5,34.6,23.4,32.5,26.3,18.1,86,72,46,30.17,29.97,15,4,17,0.00
2013-11-19,63.1,45.8,27.7,34.6,28.7,22.0,83,55,32,30.08,29.73,19,5,22,0.00
2013-11-20,57.6,46.6,34.5,37.6,32.2,28.0,80,58,44,29.95,29.70,16,4,18,0.00
2013-11-21,34.5,26.3,18.3,28.7,16.8,11.4,81,67,52,30.50,29.95,32,19,36,0.00
2013-11-22,34.5,21.4,6.3,13.6,6.4,-3.7,68,53,27,30.62,30.48,21,7,21,0.00
2013-11-23,21.4,13.3,5.7,11.8,-0.4,-5.6,70,55,33,30.83,30.60,16,4,16,0.00
2013-11-24,39.7,23.6,5.7,20.5,9.5,-4.0,67,55,42,30.62,30.03,30,8,30,0.00
2013-11-25,45.0,33.7,22.6,29.3,22.8,16.3,76,64,49,30.14,29.98,27,12,27,0.00
2013-11-26,29.1,23.9,15.6,21.7,9.0,-1.4,77,55,28,30.37,30.14,33,16,35,0.00
2013-11-27,35.4,20.8,2.3,20.5,6.5,-6.8,75,55,34,30.37,29.89,24,4,25,0.00
2013-11-28,35.1,24.4,9.1,19.0,12.0,-0.5,74,59,42,30.40,29.97,27,10,27,0.00
2013-11-29,42.8,25.1,7.3,25.4,14.2,-1.9,76,64,44,30.40,30.02,10,2,14,0.00
2013-11-30,50.7,32.7,18.5,32.0,22.4,11.3,83,66,47,30.12,29.99,12,4,13,0.00
2013-12-1,36.7,28.1,17.4,24.3,19.0,9.2,80,68,59,30.12,29.77,7,2,7,0.00
2013-12-2,57.4,38.0,25.5,35.5,27.4,18.1,81,67,42,29.78,29.45,11,2,13,0.00
2013-12-3,39.4,33.2,26.8,32.1,27.2,18.7,84,78,70,29.69,29.49,18,6,18,0.00
2013-12-4,28.6,15.5,11.1,24.4,7.0,0.0,84,69,58,29.96,29.63,36,26,40,0.00
2013-12-5,11.1,6.2,0.0,-0.1,-8.0,-16.2,60,51,44,30.38,29.96,38,20,38,0.00
2013-12-6,4.3,-2.0,-6.5,-11.8,-16.8,-20.6,52,48,43,30.63,30.36,22,14,23,0.00
2013-12-7,8.6,-0.8,-13.0,-2.5,-14.3,-26.9,63,52,43,30.68,30.35,10,4,11,0.00
2013-12-8,18.5,10.6,1.6,5.8,0.6,-7.0,70,63,54,30.35,29.98,17,4,18,0.00
2013-12-9,17.8,5.3,-2.4,3.3,-9.7,-17.7,66,49,41,30.21,29.86,27,14,30,0.00
2013-12-10,26.4,18.0,7.0,14.9,5.6,-6.8,76,58,45,30.25,29.86,37,11,38,0.00
2013-12-11,17.6,5.4,-7.4,9.1,-9.1,-20.2,69,50,34,30.56,30.25,30,9,34,0.00
2013-12-12,35.8,21.9,3.6,19.1,9.8,-6.6,72,59,48,30.28,29.98,14,3,17,0.00
2013-12-13,25.9,16.9,7.5,15.1,7.9,-1.7,74,67,62,30.13,29.91,15,5,16,0.00
2013-12-14,16.9,12.4,6.1,6.4,2.4,-4.0,67,63,57,30.19,30.07,18,8,19,0.00
2013-12-15,21.6,15.5,7.7,10.0,5.3,-2.5,69,63,56,30.08,29.93,8,4,10,0.00
2013-12-16,34.9,21.5,3.6,26.6,12.3,-5.8,77,67,62,30.06,29.89,30,6,33,0.00
2013-12-17,36.7,29.3,16.9,25.7,17.2,5.4,76,61,42,30.20,29.96,26,10,29,0.00
2013-12-18,55.8,33.7,19.2,31.9,21.3,8.0,75,61,37,29.95,29.64,9,2,9,0.00
2013-12-19,28.4,19.1,10.8,22.7,10.0,1.7,79,67,61,29.95,29.74,21,7,25,0.00
2013-12-20,15.6,12.4,9.7,4.5,2.5,-0.8,67,64,59,29.96,29.81,21,11,22,0.00
2013-12-21,26.4,16.1,6.8,12.5,5.7,-2.4,71,63,52,29.90,29.74,14,4,14,0.00
2013-12-22,16.5,9.0,0.1,6.5,-3.6,-13.6,65,56,44,30.34,29.90,25,16,26,0.00
2013-12-23,5.4,-3.7,-13.7,-13.2,-23.3,-34.0,54,39,24,30.52,30.34,25,12,27,0.00
2013-12-24,23.4,10.9,-12.8,16.0,-1.2,-28.4,74,57,43,30.42,30.00,27,8,27,0.00
2013-12-25,38.1,24.2,13.1,28.9,14.0,4.3,75,65,44,30.20,30.05,33,9,33,0.00
2013-12-26,48.2,30.2,14.9,24.5,17.5,6.5,73,60,34,30.16,30.00,14,4,15,0.00
2013-12-27,56.1,33.1,13.3,31.9,19.8,5.4,77,60,34,30.16,29.95,21,5,21,0.00
2013-12-28,62.6,31.1,6.4,33.1,17.4,-5.8,75,60,20,30.18,29.63,48,17,53,3.50
2013-12-29,7.9,0.9,-6.0,-5.4,-21.1,-28.9,57,35,22,30.38,30.17,38,17,46,0.06
2013-12-30,26.6,11.9,1.0,19.1,-0.9,-17.3,74,57,35,30.22,29.94,27,9,29,0.00
2013-12-31,17.4,9.6,5.2,6.7,-1.1,-5.9,67,61,56,30.20,30.06,20,8,23,0.00
2014-1-1,6.1,3.1,-4.0,-4.4,-8.1,-14.6,67,58,51,30.35,30.16,15,6,15,0.00
2014-1-2,7.2,-2.9,-11.6,-7.2,-15.1,-22.7,65,55,42,30.42,30.25,8,4,9,0.00